Regional Weather Roundup
Issued by NWS

Home | Current Version | Previous Version | Text Only | Print | Product List | Glossary Off
Versions: 1 2 3 4 5 6 7 8 9 10 11 12 13 14 15 16 17 18 19 20 21 22 23 24 25 26 27 28 29 30 31 32 33 34 35 36 37 38 39 40 41 42 43 44 45 46 47 48 49 50

000
ASUS43 KOAX 230210
RWRNE

WEATHER ROUNDUP FOR NEBRASKA
NATIONAL WEATHER SERVICE OMAHA NE
900 PM CDT TUE APR 22 2014

NOTES: SATELLITE DATA IS BEING USED TO AUGMENT CLOUD COVER ABOVE
       12000 FEET.
       "FAIR" INDICATES FEW OR NO CLOUDS BELOW 12,000 FEET WITH NO
       SIGNIFICANT WEATHER AND/OR OBSTRUCTIONS TO VISIBILITY.

  * THESE STATIONS DO NOT REPORT WEATHER SUCH AS RAIN...SNOW OR FOG.

NEZ001>004-019>022-054>056-230300-
NEBRASKA PANHANDLE

CITY           SKY/WX    TMP DP  RH WIND       PRES   REMARKS
SCOTTSBLUFF    CLOUDY    72  39  30 S15G21    29.67S
ALLIANCE       LGT RAIN  62  49  62 W5        29.67S
CHADRON        CLOUDY    62  51  67 SE10      29.61F
KIMBALL        CLOUDY    67  32  27 CALM      29.68S
SIDNEY         CLOUDY    69  34  27 S15       29.66F
$$

NEZ057>060-069>072-079>082-230300-
SOUTHWEST NEBRASKA

CITY           SKY/WX    TMP DP  RH WIND       PRES   REMARKS
NORTH PLATTE   PTCLDY    67  30  25 SE14      29.74S
IMPERIAL       PTCLDY    68  41  37 SE20G26   29.70S
LEXINGTON      PTCLDY    66  34  30 SE16G22   29.80R
MCCOOK         MOCLDY    68  37  32 SE22G32   29.75S
OGALLALA       PTCLDY    69  36  29 SE22G30   29.68S
$$

NEZ005>010-023>029-035>040-094-230300-
NORTH CENTRAL NEBRASKA

CITY           SKY/WX    TMP DP  RH WIND       PRES   REMARKS
VALENTINE      MOCLDY    68  35  29 SE13      29.72S
AINSWORTH      PTCLDY    65  34  31 SE18G26   29.75S
BROKEN BOW       N/A     62  34  35 SE16      29.80S
O`NEILL        CLEAR     64  28  25 SE14      29.83S
ORD            PTCLDY    63  32  31 SE13      29.82F
THEDFORD       CLEAR     69  34  27 S18G30    29.74S
$$

NEZ041-046>049-061>064-073>077-083>087-230300-
SOUTH CENTRAL NEBRASKA

CITY           SKY/WX    TMP DP  RH WIND       PRES   REMARKS
GRAND ISLAND   PTCLDY    64  30  27 SE14      29.88S
AURORA         PTCLDY    63  32  31 SE14      29.89S
HASTINGS       PTCLDY    64  30  27 SE14G23   29.87R
HEBRON         PTCLDY    62  29  28 SE10      29.92S
HOLDREGE       PTCLDY    64  32  29 SE18G26   29.82S
KEARNEY *      PTCLDY    63  34  34 SE16      29.84S
YORK           PTCLDY    63  32  31 SE14      29.91S
$$

NEZ011>018-030>034-042>045-230300-
NORTHEAST NEBRASKA

CITY           SKY/WX    TMP DP  RH WIND       PRES   REMARKS
NORFOLK        CLEAR     60  32  34 SE15      29.91R
ALBION         CLEAR     62  29  29 SE15      29.88S
BLAIR          CLOUDY    62  32  32 E8        29.97R
COLUMBUS *     PTCLDY    63  32  31 SE10      29.93S
FREMONT        MOCLDY    64  32  30 E12       29.96S
TEKAMAH        MOCLDY    62  32  32 SE10      29.98R
$$

NEZ050>053-065>068-078-088>093-230300-
SOUTHEAST NEBRASKA

CITY           SKY/WX    TMP DP  RH WIND       PRES   REMARKS
LINCOLN        CLOUDY    68  30  24 SE13      29.96R
OMAHA EPPLEY   CLOUDY    65  33  30 SE12      29.97R
BEATRICE       CLOUDY    66  31  27 SE9       29.96R
FALLS CITY     CLOUDY    61  34  36 SE8       29.97S
NEBRASKA CITY  MOCLDY    64  31  29 SE8       29.97S
PLATTSMOUTH    MOCLDY    62  32  32 E7        29.98R
$$

NEZ044-045-051>053-067-230300-
OMAHA AREA

CITY           SKY/WX    TMP DP  RH WIND       PRES   REMARKS
OMAHA EPPLEY   CLOUDY    65  33  30 SE12      29.97R
BLAIR          CLOUDY    62  32  32 E8        29.97R
FREMONT        MOCLDY    64  32  30 E12       29.96S
MILLARD        CLOUDY    64  34  32 E7        29.96R
OFFUTT AFB     CLOUDY    63  35  35 E9        29.97R
PLATTSMOUTH    MOCLDY    62  32  32 E7        29.98R
WAHOO          MOCLDY    61  31  31 E9        29.95S
$$



USA.gov is the U.S. government's official web portal to all federal, state and local government web resources and services.